{"data":{"norad_id":47731,"epoch":"2026-05-25T03:50:29.556384Z","epoch_age_seconds":60658,"freshness":"FRESH","line1":"1 47731U 21017K   26145.16006431  .00091425  00000+0  10248-2 0  9999","line2":"2 47731  53.1533 195.0292 0007810 350.1763   9.9098 15.61916257289752","mean_motion":15.61916257,"eccentricity":0.000781,"inclination_deg":53.1533,"raan_deg":195.0292,"arg_perigee_deg":350.1763,"mean_anomaly_deg":9.9098,"bstar":0.0010248,"rev_number":28975,"period_min":92.194443431035,"perigee_km":376.84238536461,"apogee_km":387.40191015341,"semimajor_km":6760.259147759,"source":"CELESTRAK","updated_at":"2026-05-25T13:38:16.565022Z"}}